EW7108 Weather Reports


Display with metric or nautical units.
time (UTC)temp
F
wind
direction
speed
MPH
gust
MPH
rain 1hr
in
rain 24hr
in
rain mn
in
humidity
%
barometer
mb
20200403085331 65 238 1.0 6.0 0.00 0.00 0.00 88 1011.5
20200403084829 65 177 2.0 6.0 0.00 0.00 0.00 88 1011.6
20200403084326 65 220 2.0 7.0 0.00 0.00 0.00 88 1011.8
20200403083826 65 277 1.0 8.0 0.00 0.00 0.00 88 1011.7
20200403083324 65 225 2.0 8.0 0.00 0.00 0.00 88 1011.7
20200403082821 65 242 1.0 6.0 0.00 0.00 0.00 88 1011.6
20200403082321 65 116 2.0 6.0 0.00 0.00 0.00 88 1011.6
20200403081814 65 190 2.0 9.0 0.00 0.00 0.00 88 1011.7
20200403081311 65 237 3.0 9.0 0.00 0.00 0.00 88 1011.9
20200403080811 65 218 2.0 7.0 0.00 0.00 0.00 88 1011.7
20200403080308 65 201 2.0 8.0 0.00 0.00 0.00 88 1011.7
20200403075800 65 245 1.0 8.0 0.00 0.00 0.00 88 1011.9
20200403075252 65 274 3.0 7.0 0.00 0.00 0.00 88 1011.8
20200403074757 65 190 3.0 7.0 0.00 0.00 0.00 88 1011.9
20200403074250 65 219 2.0 7.0 0.00 0.00 0.00 88 1011.9
20200403073748 65 203 2.0 7.0 0.00 0.00 0.00 88 1012.1
20200403073240 65 238 0.0 7.0 0.00 0.00 0.00 88 1012.3
20200403072740 65 194 1.0 7.0 0.00 0.00 0.00 88 1012.1
20200403072231 65 211 3.0 7.0 0.00 0.00 0.00 88 1012.3
20200403071730 65 151 1.0 4.0 0.00 0.00 0.00 88 1012.2
20200403071229 65 237 1.0 4.0 0.00 0.00 0.00 88 1012.4
20200403070721 65 227 2.0 6.0 0.00 0.00 0.00 87 1012.5
20200403070219 65 203 2.0 7.0 0.00 0.00 0.00 87 1012.7
20200403065717 65 184 4.0 7.0 0.00 0.00 0.00 88 1012.8
20200403065224 65 208 2.0 3.0 0.00 0.00 0.00 88 1012.6
20200403064715 65 215 0.0 4.0 0.00 0.00 0.00 88 1012.7
20200403064215 65 220 1.0 4.0 0.00 0.00 0.00 88 1012.6
20200403063712 65 244 1.0 7.0 0.00 0.00 0.00 87 1012.6
20200403063210 65 210 2.0 7.0 0.00 0.00 0.00 87 1012.7
20200403062711 65 223 1.0 6.0 0.00 0.00 0.00 87 1012.7
20200403062207 65 348 2.0 6.0 0.00 0.00 0.00 87 1012.7
20200403061707 65 209 1.0 8.0 0.00 0.00 0.00 87 1012.8
20200403061205 65 231 4.0 8.0 0.00 0.00 0.00 87 1012.7
20200403060704 65 191 4.0 8.0 0.00 0.00 0.00 87 1012.7
20200403060203 65 183 4.0 9.0 0.00 0.00 0.00 87 1012.8
20200403055702 65 249 2.0 10.0 0.00 0.00 0.00 87 1012.5
20200403055201 65 169 3.0 10.0 0.00 0.00 0.00 87 1012.7
20200403054700 65 231 3.0 9.0 0.00 0.00 0.00 87 1012.6
20200403054159 65 248 3.0 9.0 0.00 0.00 0.00 87 1012.8
20200403053706 65 221 1.0 7.0 0.00 0.00 0.00 87 1012.6
20200403053156 65 355 2.0 7.0 0.00 0.00 0.00 86 1012.4
20200403052654 65 230 2.0 8.0 0.00 0.00 0.00 86 1012.4
20200403052204 65 178 5.0 8.0 0.00 0.00 0.00 86 1012.3
20200403051650 65 198 2.0 7.0 0.00 0.00 0.00 86 1012.6
20200403051149 65 203 4.0 7.0 0.00 0.00 0.00 87 1012.6
20200403050649 65 178 2.0 8.0 0.00 0.00 0.00 87 1012.4
20200403050147 65 295 4.0 8.0 0.00 0.00 0.00 88 1012.6
20200403045651 65 285 2.0 6.0 0.00 0.00 0.00 88 1012.4
20200403045146 65 276 1.0 7.0 0.00 0.00 0.00 88 1012.4
20200403044645 65 191 3.0 8.0 0.00 0.00 0.00 88 1012.5
20200403044144 66 194 1.0 8.0 0.00 0.00 0.00 88 1012.3
20200403043643 66 221 3.0 8.0 0.00 0.00 0.00 88 1012.6
20200403043141 66 229 2.0 8.0 0.00 0.00 0.00 87 1012.5
20200403042646 66 245 2.0 9.0 0.00 0.00 0.00 87 1012.5
20200403042139 66 171 3.0 9.0 0.00 0.00 0.00 87 1012.9
20200403041639 66 78 7.0 9.0 0.00 0.00 0.00 88 1012.5
20200403041137 66 297 2.0 8.0 0.00 0.00 0.00 88 1012.6
20200403040637 66 227 1.0 8.0 0.00 0.00 0.00 88 1012.5
20200403040136 66 219 2.0 8.0 0.00 0.00 0.00 89 1012.4
20200403035635 66 218 1.0 8.0 0.00 0.00 0.00 89 1012.2
20200403035134 66 317 1.0 9.0 0.00 0.00 0.00 89 1012.3
20200403034631 66 195 5.0 9.0 0.00 0.00 0.00 88 1012.2
20200403034130 66 205 1.0 8.0 0.00 0.00 0.00 88 1012.4
20200403033629 66 166 2.0 8.0 0.00 0.00 0.00 88 1012.4
20200403033128 66 327 2.0 8.0 0.00 0.00 0.00 88 1012.2
20200403032625 66 326 1.0 8.0 0.00 0.00 0.00 88 1012.5
20200403032126 66 216 1.0 4.0 0.00 0.00 0.00 87 1012.4
20200403031624 66 30 2.0 6.0 0.00 0.00 0.00 87 1012.4
20200403031123 66 208 1.0 6.0 0.00 0.00 0.00 87 1012.5
20200403030622 66 233 2.0 7.0 0.00 0.00 0.00 87 1012.6
20200403030121 66 233 4.0 7.0 0.00 0.00 0.00 87 1012.3
20200403025620 67 29 1.0 8.0 0.00 0.00 0.00 86 1012.6
20200403025119 67 13 4.0 8.0 0.00 0.00 0.00 86 1012.4
20200403024619 67 224 1.0 6.0 0.00 0.00 0.00 86 1012.2
20200403024117 67 231 1.0 6.0 0.00 0.00 0.00 86 1012.4
20200403023616 67 212 1.0 6.0 0.00 0.00 0.00 86 1012.3
20200403023114 67 190 3.0 4.0 0.00 0.00 0.00 86 1012.3
20200403022615 67 274 1.0 4.0 0.00 0.00 0.00 86 1012.4
20200403022113 66 307 2.0 4.0 0.00 0.00 0.00 86 1012.1
20200403021612 66 268 1.0 4.0 0.00 0.00 0.00 87 1012.2
20200403021110 66 207 1.0 6.0 0.00 0.00 0.00 87 1012.2
20200403020610 66 228 1.0 6.0 0.00 0.00 0.00 88 1012.1
20200403020109 66 226 1.0 6.0 0.00 0.00 0.00 88 1012.1
20200403015609 67 240 2.0 6.0 0.00 0.00 0.00 87 1012.2
20200403015108 67 221 3.0 6.0 0.00 0.00 0.00 85 1011.9
20200403014606 67 226 2.0 4.0 0.00 0.00 0.00 83 1011.9
20200403014105 67 239 1.0 4.0 0.00 0.00 0.00 83 1011.6
20200403013604 67 238 1.0 6.0 0.00 0.00 0.00 82 1011.6
20200403013104 68 242 1.0 7.0 0.00 0.00 0.00 82 1011.5
20200403012601 68 245 2.0 7.0 0.00 0.00 0.00 82 1011.3
20200403012055 68 251 0.0 6.0 0.00 0.00 0.00 82 1011.2
20200403011552 68 221 1.0 6.0 0.00 0.00 0.00 82 1011.2
20200403011050 68 215 2.0 4.0 0.00 0.00 0.00 82 1010.9
20200403010552 68 204 1.0 8.0 0.00 0.00 0.00 82 1010.8
20200403010048 68 202 1.0 8.0 0.00 0.00 0.00 82 1011.1
20200403005547 68 347 2.0 7.0 0.00 0.00 0.00 82 1010.8
20200403005048 68 331 1.0 9.0 0.00 0.00 0.00 81 1010.9
20200403004547 68 220 4.0 8.0 0.00 0.00 0.00 81 1010.9
20200403004044 68 285 2.0 8.0 0.00 0.00 0.00 81 1010.9
20200403003543 68 212 2.0 8.0 0.00 0.00 0.00 81 1011.0
20200403003042 68 202 1.0 7.0 0.00 0.00 0.00 81 1010.8
20200403002540 68 191 2.0 7.0 0.00 0.00 0.00 81 1010.8
20200403002040 68 355 3.0 8.0 0.00 0.00 0.00 81 1010.8
20200403001539 68 217 2.0 8.0 0.00 0.00 0.00 81 1010.7
20200403001038 68 222 1.0 6.0 0.00 0.00 0.00 81 1011.1
20200403000529 68 260 1.0 7.0 0.00 0.00 0.00 81 1010.9
20200403000034 68 206 2.0 7.0 0.00 0.00 0.00 81 1011.1
20200402235528 68 212 0.0 7.0 0.00 0.00 0.00 81 1010.9
20200402235027 68 183 3.0 6.0 0.00 0.00 0.00 81 1011.1
20200402234526 68 1 1.0 9.0 0.00 0.00 0.00 80 1011.0
20200402234026 68 337 2.0 9.0 0.00 0.00 0.00 81 1010.9
20200402233524 68 121 2.0 9.0 0.00 0.00 0.00 80 1011.1
20200402233023 68 260 1.0 10.0 0.00 0.00 0.00 80 1010.8
20200402232522 68 232 1.0 10.0 0.00 0.00 0.00 80 1010.9
20200402232021 68 207 2.0 9.0 0.00 0.00 0.00 80 1010.9
20200402231506 68 297 4.0 9.0 0.00 0.00 0.00 80 1011.2
20200402231005 68 222 1.0 8.0 0.00 0.00 0.00 79 1010.9
20200402230501 69 201 2.0 11.0 0.00 0.00 0.00 79 1010.9
20200402230002 69 171 2.0 11.0 0.00 0.00 0.00 78 1010.9
20200402225459 69 115 4.0 10.0 0.00 0.00 0.00 78 1011.1
20200402224958 69 257 5.0 10.0 0.00 0.00 0.00 78 1010.6
20200402224450 69 186 5.0 9.0 0.00 0.00 0.00 78 1010.6
20200402223954 69 224 5.0 9.0 0.00 0.00 0.00 78 1010.6
20200402223448 69 264 2.0 10.0 0.00 0.00 0.00 78 1010.3
20200402222946 69 166 3.0 10.0 0.00 0.00 0.00 78 1010.6
20200402222446 69 236 5.0 10.0 0.00 0.00 0.00 77 1010.7
20200402221945 69 212 4.0 10.0 0.00 0.00 0.00 77 1010.6
20200402221443 69 200 3.0 15.0 0.00 0.00 0.00 78 1010.7
20200402220941 69 262 2.0 15.0 0.00 0.00 0.00 79 1010.7
20200402220434 69 258 2.0 10.0 0.00 0.00 0.00 79 1010.5
20200402215933 69 159 5.0 10.0 0.00 0.00 0.00 79 1010.6
20200402215432 68 21 2.0 13.0 0.00 0.00 0.00 79 1011.0
20200402214924 68 277 2.0 13.0 0.00 0.00 0.00 80 1011.1
20200402214429 68 254 5.0 8.0 0.00 0.00 0.00 80 1011.3
20200402213922 68 260 1.0 10.0 0.00 0.00 0.00 80 1011.0
20200402213413 68 196 2.0 10.0 0.00 0.00 0.00 80 1010.9
20200402212912 68 279 5.0 9.0 0.00 0.00 0.00 79 1011.0
20200402212403 68 221 2.0 9.0 0.00 0.00 0.00 80 1010.8
20200402211902 68 185 2.0 9.0 0.00 0.00 0.00 80 1011.0
20200402211401 68 234 2.0 9.0 0.00 0.00 0.00 80 1011.1
20200402210901 68 216 3.0 9.0 0.00 0.00 0.00 81 1010.8
20200402210400 68 181 1.0 9.0 0.00 0.00 0.00 81 1010.6
20200402205858 68 177 3.0 8.0 0.00 0.00 0.00 81 1010.7
20200402205357 68 227 1.0 13.0 0.00 0.00 0.00 81 1010.8
20200402204904 67 188 3.0 13.0 0.00 0.00 0.00 82 1011.0
20200402204356 67 33 2.0 8.0 0.00 0.00 0.00 82 1011.0
20200402203849 67 187 2.0 9.0 0.00 0.00 0.00 83 1011.3
20200402203347 67 274 2.0 9.0 0.00 0.00 0.00 82 1011.4
20200402202846 68 212 3.0 10.0 0.00 0.00 0.00 83 1011.2
20200402202344 67 211 2.0 10.0 0.00 0.00 0.00 83 1011.2
20200402201844 67 227 2.0 8.0 0.00 0.00 0.00 84 1011.1
20200402201342 67 215 1.0 9.0 0.00 0.00 0.00 83 1011.5
20200402200843 67 229 4.0 9.0 0.00 0.00 0.00 82 1011.6
20200402200341 67 197 2.0 6.0 0.00 0.00 0.00 82 1011.9
20200402195840 66 245 2.0 7.0 0.00 0.00 0.00 83 1011.9
20200402195339 66 193 3.0 7.0 0.00 0.00 0.00 84 1011.9
20200402194837 66 186 3.0 10.0 0.00 0.00 0.00 84 1012.1
20200402194342 66 244 2.0 10.0 0.00 0.00 0.00 84 1012.1
20200402193837 66 223 1.0 7.0 0.00 0.00 0.00 84 1012.0
20200402193329 67 257 1.0 7.0 0.00 0.00 0.00 82 1012.3
20200402192827 67 229 1.0 7.0 0.00 0.00 0.00 81 1012.5
20200402192326 67 224 1.0 7.0 0.00 0.00 0.00 81 1012.5
20200402191818 67 221 1.0 7.0 0.00 0.00 0.00 80 1012.5
20200402191317 67 187 3.0 7.0 0.00 0.00 0.00 80 1012.4
20200402190815 67 191 3.0 9.0 0.00 0.00 0.00 80 1012.6
20200402190314 67 173 2.0 9.0 0.00 0.00 0.00 80 1012.5
20200402185814 67 248 4.0 7.0 0.00 0.00 0.00 80 1012.6
20200402185313 67 220 5.0 7.0 0.00 0.00 0.00 80 1012.8
20200402184805 67 35 1.0 8.0 0.00 0.00 0.00 80 1013.0
20200402184304 67 237 1.0 8.0 0.00 0.00 0.00 80 1013.0
20200402183803 66 317 2.0 10.0 0.00 0.00 0.00 81 1013.1
20200402183302 66 168 8.0 10.0 0.00 0.00 0.00 81 1013.1
20200402182800 66 189 1.0 7.0 0.00 0.00 0.00 81 1013.1
20200402182259 66 216 2.0 6.0 0.00 0.00 0.00 81 1013.1
20200402181758 66 244 1.0 7.0 0.00 0.00 0.00 81 1013.1
20200402181257 65 49 4.0 9.0 0.00 0.00 0.00 81 1013.0
20200402180756 65 268 1.0 9.0 0.00 0.00 0.00 81 1013.2
20200402180255 65 43 1.0 9.0 0.00 0.00 0.00 81 1013.3
20200402175753 65 232 3.0 8.0 0.00 0.00 0.00 81 1013.4
20200402175258 66 288 4.0 9.0 0.00 0.00 0.00 80 1013.5
20200402174752 66 251 4.0 9.0 0.00 0.00 0.00 80 1013.5
20200402174251 66 244 4.0 8.0 0.00 0.00 0.00 80 1013.2
20200402173750 66 260 1.0 8.0 0.00 0.00 0.00 80 1013.2
20200402173248 66 164 4.0 10.0 0.00 0.00 0.00 79 1012.9
20200402172754 66 42 1.0 10.0 0.00 0.00 0.00 79 1013.3
20200402172246 66 197 3.0 8.0 0.00 0.00 0.00 79 1013.3
20200402171746 66 272 1.0 8.0 0.00 0.00 0.00 79 1013.2
20200402171245 67 296 3.0 10.0 0.00 0.00 0.00 78 1013.4
20200402170737 67 243 2.0 10.0 0.00 0.00 0.00 78 1013.4
20200402170236 67 226 4.0 11.0 0.00 0.00 0.00 78 1013.3
20200402165727 67 177 4.0 11.0 0.00 0.00 0.00 78 1013.3
20200402165227 66 230 2.0 10.0 0.00 0.00 0.00 79 1013.5
20200402164728 66 258 5.0 10.0 0.00 0.00 0.00 79 1013.4
20200402164217 66 348 4.0 11.0 0.00 0.00 0.00 79 1013.5
20200402163713 66 326 5.0 13.0 0.00 0.00 0.00 79 1013.4
20200402163201 66 164 4.0 13.0 0.00 0.00 0.00 79 1013.6
20200402162701 66 260 3.0 10.0 0.00 0.00 0.00 79 1013.7
20200402162200 65 267 2.0 10.0 0.00 0.00 0.00 79 1013.8
20200402161658 65 311 4.0 9.0 0.00 0.00 0.00 80 1013.7
20200402161150 65 78 5.0 9.0 0.00 0.00 0.00 80 1014.2
20200402160651 65 190 3.0 14.0 0.00 0.00 0.00 79 1014.2
20200402160149 66 293 2.0 14.0 0.00 0.00 0.00 79 1013.7
20200402155648 66 351 4.0 14.0 0.00 0.00 0.00 79 1013.8
20200402155147 66 283 2.0 9.0 0.00 0.00 0.00 79 1013.7
20200402154647 66 33 4.0 15.0 0.00 0.00 0.00 79 1013.9
20200402154144 66 239 3.0 15.0 0.00 0.00 0.00 79 1013.9
20200402153643 66 275 3.0 7.0 0.00 0.00 0.00 78 1013.6
20200402153141 66 206 3.0 9.0 0.00 0.00 0.00 78 1013.6
20200402152639 65 244 1.0 9.0 0.00 0.00 0.00 79 1013.7
20200402152139 65 9 2.0 8.0 0.00 0.00 0.00 79 1013.8
20200402151631 64 220 4.0 7.0 0.00 0.00 0.00 80 1013.5
20200402151129 64 50 4.0 10.0 0.00 0.00 0.00 80 1014.0
20200402150629 64 114 3.0 10.0 0.00 0.00 0.00 81 1013.9
20200402150128 63 187 3.0 9.0 0.00 0.00 0.00 81 1013.8
20200402145627 63 25 3.0 9.0 0.00 0.00 0.00 82 1013.6
20200402145126 63 14 1.0 11.0 0.00 0.00 0.00 82 1013.8
20200402144625 62 170 7.0 11.0 0.00 0.00 0.00 82 1013.8
20200402144124 62 161 7.0 9.0 0.00 0.00 0.00 82 1013.6
20200402143623 62 218 2.0 7.0 0.00 0.00 0.00 82 1013.4
20200402143122 62 243 2.0 8.0 0.00 0.00 0.00 83 1013.5
20200402142620 62 266 4.0 9.0 0.00 0.00 0.00 83 1013.4
20200402142122 61 172 5.0 10.0 0.00 0.00 0.00 83 1013.3
20200402141618 61 189 3.0 10.0 0.00 0.00 0.00 83 1013.2
20200402141117 61 132 1.0 9.0 0.00 0.00 0.00 83 1013.2
20200402140602 61 217 3.0 8.0 0.00 0.00 0.00 83 1013.2
20200402140102 61 282 1.0 10.0 0.00 0.00 0.00 83 1013.2
20200402135601 61 235 3.0 10.0 0.00 0.00 0.00 83 1013.3
20200402135100 61 212 5.0 9.0 0.00 0.00 0.00 83 1013.5
20200402134559 61 286 4.0 9.0 0.00 0.00 0.00 83 1013.4
20200402134058 60 237 2.0 8.0 0.00 0.00 0.00 83 1013.5
20200402133557 60 206 2.0 8.0 0.00 0.00 0.00 83 1013.3
20200402133056 60 244 3.0 9.0 0.00 0.00 0.00 83 1013.2
20200402132555 60 286 1.0 9.0 0.00 0.00 0.00 83 1013.0
20200402132054 60 215 2.0 8.0 0.00 0.00 0.00 83 1013.0
20200402131553 60 241 0.0 7.0 0.00 0.00 0.00 84 1012.7
20200402131052 60 177 2.0 7.0 0.00 0.00 0.00 83 1012.8
20200402130551 60 284 2.0 7.0 0.00 0.00 0.00 83 1012.9
20200402130049 60 186 2.0 8.0 0.00 0.00 0.00 83 1012.8
20200402125548 60 217 1.0 8.0 0.00 0.00 0.00 83 1012.6
20200402125048 60 290 0.0 8.0 0.00 0.00 0.00 83 1012.8
20200402124547 60 225 2.0 10.0 0.00 0.00 0.00 83 1012.6
20200402124046 60 185 5.0 10.0 0.00 0.00 0.00 83 1012.5
20200402123544 60 13 3.0 8.0 0.00 0.00 0.00 84 1012.6
20200402123044 59 233 2.0 7.0 0.00 0.00 0.00 84 1012.6
20200402122542 59 80 2.0 7.0 0.00 0.00 0.00 84 1012.5
20200402122100 59 212 1.0 8.0 0.00 0.00 0.00 84 1012.4
20200402121541 59 270 3.0 10.0 0.00 0.00 0.00 84 1012.2
20200402121040 59 190 2.0 10.0 0.00 0.00 0.00 83 1012.2
20200402120538 59 243 3.0 9.0 0.00 0.00 0.00 83 1012.3
20200402120037 59 224 3.0 7.0 0.00 0.00 0.00 84 1012.4
20200402115530 59 200 2.0 7.0 0.00 0.00 0.00 84 1012.4
20200402115028 59 242 2.0 7.0 0.00 0.00 0.00 84 1012.3
20200402114529 59 166 2.0 6.0 0.00 0.00 0.00 83 1012.3
20200402114027 59 208 1.0 8.0 0.00 0.00 0.00 83 1012.2
20200402113526 60 22 2.0 8.0 0.00 0.00 0.00 83 1012.2
20200402113018 60 225 2.0 8.0 0.00 0.00 0.00 83 1012.1
20200402112517 60 252 1.0 8.0 0.00 0.00 0.00 83 1012.5
20200402112015 59 227 2.0 7.0 0.00 0.00 0.00 83 1012.3
20200402111515 59 220 1.0 7.0 0.00 0.00 0.00 83 1012.3
20200402111013 59 278 2.0 9.0 0.00 0.00 0.00 83 1012.3
20200402110513 60 217 2.0 9.0 0.00 0.00 0.00 82 1012.1
20200402110012 59 253 3.0 6.0 0.00 0.00 0.00 82 1012.2
20200402105504 59 233 1.0 10.0 0.00 0.00 0.00 82 1012.1
20200402105003 59 218 2.0 10.0 0.00 0.00 0.00 82 1012.2
20200402104503 59 278 3.0 7.0 0.00 0.00 0.00 82 1012.2
20200402104001 59 200 1.0 6.0 0.00 0.00 0.00 82 1012.0
20200402103500 59 203 2.0 7.0 0.00 0.00 0.00 82 1011.9
20200402102959 59 202 1.0 8.0 0.00 0.00 0.00 81 1012.0
20200402102458 59 122 2.0 8.0 0.00 0.00 0.00 81 1011.9
20200402101950 59 324 1.0 7.0 0.00 0.00 0.00 81 1012.1
20200402101448 60 1 1.0 7.0 0.00 0.00 0.00 80 1012.2
20200402100949 60 294 1.0 8.0 0.00 0.00 0.00 80 1011.8
20200402100447 60 238 1.0 8.0 0.00 0.00 0.00 80 1012.0
20200402095938 60 221 2.0 8.0 0.00 0.00 0.00 80 1012.2
20200402095438 60 254 3.0 6.0 0.00 0.00 0.00 80 1012.2
20200402094936 60 291 1.0 8.0 0.00 0.00 0.00 80 1012.1
20200402094438 60 236 2.0 8.0 0.00 0.00 0.00 79 1011.9
20200402093934 60 237 2.0 7.0 0.00 0.00 0.00 79 1012.0
20200402093435 60 234 1.0 6.0 0.00 0.00 0.00 79 1011.6
20200402092927 60 277 2.0 6.0 0.00 0.00 0.00 79 1011.8
20200402092420 60 226 2.0 7.0 0.00 0.00 0.00 79 1011.9
20200402091917 60 241 3.0 11.0 0.00 0.00 0.00 79 1011.8
20200402091420 60 201 2.0 11.0 0.00 0.00 0.00 78 1011.9
20200402090915 60 217 2.0 8.0 0.00 0.00 0.00 78 1012.0
20200402090407 60 161 4.0 6.0 0.00 0.00 0.00 78 1011.8
20200402085906 60 1 1.0 7.0 0.00 0.00 0.00 78 1011.8
20200402085405 60 191 5.0 8.0 0.00 0.00 0.00 77 1011.9